Darlington, SC

7:30 AM EDT on September 20, 2017 (GMT -0400)
Darlington County Jetport

Weather History for KUDG - October, 2012

Change the Weather History Date:

Wednesday, October 31, 2012

  Actual Average (KFLO) Record (KFLO)
Temperature  
Mean Temperature 52 °F -  
Max Temperature 64 °F 70 °F 87 °F (1961)
Min Temperature 37 °F 49 °F 33 °F (1952)
Degree Days  
Heating Degree Days 14    
Growing Degree Days 2 (Base 50)    
Moisture  
Dew Point 32 °F    
Average Humidity 54    
Maximum Humidity 81    
Minimum Humidity 32    
Precipitation  
Precipitation 0.00 in - - ()
Sea Level Pressure  
Sea Level Pressure 29.74 in    
Wind  
Wind Speed 7 mph (WSW)    
Max Wind Speed 15 mph    
Max Gust Speed 23 mph    
Visibility 10 miles    
Events      
Averages and records for this station are not official NWS values.
T = Trace of Precipitation, MM = Missing Value Source: NWS Daily Summary

Daily Weather History Graph

Daily Weather History Graph

Search for Another Location

Airport or City:

Trip Planner

Search our weather history database for the weather conditions in past years. The results will help you decide how hot, cold, wet, or windy it might be!

Date:

Astronomy

Oct. 31, 2012 Rise Set
Actual Time 7:39 AM EDT 6:26 PM EDT
Civil Twilight 7:13 AM EDT 6:52 PM EDT
Nautical Twilight 6:43 AM EDT 7:22 PM EDT
Astronomical Twilight 6:14 AM EDT 7:51 PM EDT
Moon 7:41 PM EDT (10/31) 9:14 AM EDT (10/31)
Length of Visible Light 11h 39m
Length of Day
10h 47m
Full, 97% of the Moon is Illuminated
Oct 31
Full
Nov 6
Last Quarter
Nov 13
New
Nov 20
First Quarter
Nov 28
Full

Hourly Weather History & Observations

Time (EDT) Temp. Windchill Dew Point Humidity Pressure Visibility Wind Dir Wind Speed Gust Speed Precip Events Conditions
12:15 AM 44.6 °F 40.7 °F 32.0 °F 61% 29.70 in 10.0 mi WSW 6.9 mph - N/A   Clear
12:35 AM 44.6 °F 42.2 °F 30.2 °F 57% 29.70 in 10.0 mi SW 4.6 mph - N/A   Clear
12:55 AM 42.8 °F 39.3 °F 30.2 °F 61% 29.70 in 10.0 mi SW 5.8 mph - N/A   Clear
1:15 AM 41.0 °F 38.0 °F 32.0 °F 70% 29.70 in 10.0 mi SW 4.6 mph - N/A   Clear
1:35 AM 41.0 °F 36.4 °F 32.0 °F 70% 29.70 in 10.0 mi SW 6.9 mph - N/A   Clear
1:55 AM 41.0 °F 37.1 °F 32.0 °F 70% 29.70 in 10.0 mi SW 5.8 mph - N/A   Clear
2:15 AM 41.0 °F 38.0 °F 32.0 °F 70% 29.70 in 10.0 mi SW 4.6 mph - N/A   Clear
2:35 AM 39.2 °F 34.2 °F 32.0 °F 75% 29.71 in 10.0 mi SW 6.9 mph - N/A   Clear
2:55 AM 39.2 °F 34.2 °F 32.0 °F 75% 29.71 in 10.0 mi SSW 6.9 mph - N/A   Clear
3:15 AM 41.0 °F 37.1 °F 32.0 °F 70% 29.71 in 10.0 mi SW 5.8 mph - N/A   Clear
3:35 AM 41.0 °F 37.1 °F 32.0 °F 70% 29.71 in 10.0 mi WSW 5.8 mph - N/A   Clear
3:55 AM 42.8 °F 39.3 °F 32.0 °F 66% 29.71 in 10.0 mi WSW 5.8 mph - N/A   Clear
4:15 AM 42.8 °F 38.0 °F 32.0 °F 66% 29.71 in 10.0 mi SW 8.1 mph - N/A   Partly Cloudy
4:35 AM 42.8 °F 39.3 °F 32.0 °F 66% 29.71 in 10.0 mi SW 5.8 mph - N/A   Mostly Cloudy
4:55 AM 42.8 °F 39.3 °F 32.0 °F 66% 29.71 in 10.0 mi SW 5.8 mph - N/A   Overcast
5:15 AM 42.8 °F 38.6 °F 32.0 °F 66% 29.71 in 10.0 mi SW 6.9 mph - N/A   Mostly Cloudy
5:35 AM 42.8 °F 38.6 °F 32.0 °F 66% 29.72 in 10.0 mi WSW 6.9 mph - N/A   Clear
5:55 AM 42.8 °F 39.3 °F 32.0 °F 66% 29.72 in 10.0 mi WSW 5.8 mph - N/A   Clear
6:15 AM 42.8 °F 38.6 °F 32.0 °F 66% 29.73 in 10.0 mi SW 6.9 mph - N/A   Clear
6:35 AM 41.0 °F 37.1 °F 32.0 °F 70% 29.73 in 10.0 mi SW 5.8 mph - N/A   Clear
6:55 AM 41.0 °F 36.4 °F 30.2 °F 65% 29.73 in 10.0 mi SW 6.9 mph - N/A   Clear
7:15 AM 41.0 °F 37.1 °F 30.2 °F 65% 29.74 in 10.0 mi SW 5.8 mph - N/A   Mostly Cloudy
7:35 AM 39.2 °F 34.2 °F 30.2 °F 70% 29.74 in 10.0 mi SW 6.9 mph - N/A   Scattered Clouds
7:55 AM 39.2 °F 34.2 °F 30.2 °F 70% 29.74 in 10.0 mi SW 6.9 mph - N/A   Clear
8:15 AM 41.0 °F 35.8 °F 30.2 °F 65% 29.75 in 10.0 mi SW 8.1 mph - N/A   Clear
8:35 AM 42.8 °F 38.0 °F 30.2 °F 61% 29.75 in 10.0 mi SW 8.1 mph - N/A   Clear
8:55 AM 44.6 °F 40.2 °F 30.2 °F 57% 29.76 in 10.0 mi WSW 8.1 mph - N/A   Clear
9:15 AM 46.4 °F 41.9 °F 30.2 °F 53% 29.76 in 10.0 mi SW 9.2 mph - N/A   Clear
9:35 AM 46.4 °F 41.9 °F 30.2 °F 53% 29.76 in 10.0 mi SW 9.2 mph - N/A   Clear
9:55 AM 48.2 °F - 30.2 °F 50% 29.77 in 10.0 mi WSW 9.2 mph - N/A   Clear
10:15 AM 50.0 °F - 30.2 °F 47% 29.77 in 10.0 mi WSW 9.2 mph 16.1 mph N/A   Clear
10:35 AM 51.8 °F - 30.2 °F 44% 29.76 in 10.0 mi WSW 11.5 mph - N/A   Clear
10:55 AM 53.6 °F - 30.2 °F 41% 29.77 in 10.0 mi WSW 11.5 mph - N/A   Clear
11:15 AM 53.6 °F - 30.2 °F 41% 29.76 in 10.0 mi West 9.2 mph - N/A   Clear
11:35 AM 55.4 °F - 32.0 °F 41% 29.76 in 10.0 mi West 11.5 mph 16.1 mph N/A   Clear
11:55 AM 55.4 °F - 32.0 °F 41% 29.75 in 10.0 mi West 12.7 mph - N/A   Clear
12:15 PM 57.2 °F - 32.0 °F 38% 29.75 in 10.0 mi WSW 11.5 mph - N/A   Clear
12:35 PM 57.2 °F - 32.0 °F 38% 29.74 in 10.0 mi West 11.5 mph 19.6 mph N/A   Clear
12:55 PM 57.2 °F - 32.0 °F 38% 29.74 in 10.0 mi West 11.5 mph - N/A   Scattered Clouds
1:15 PM 59.0 °F - 32.0 °F 36% 29.73 in 10.0 mi West 12.7 mph 17.3 mph N/A   Partly Cloudy
1:35 PM 60.8 °F - 33.8 °F 36% 29.73 in 10.0 mi WSW 13.8 mph 20.7 mph N/A   Clear
1:55 PM 60.8 °F - 33.8 °F 36% 29.73 in 10.0 mi West 15.0 mph 19.6 mph N/A   Partly Cloudy
2:15 PM 60.8 °F - 33.8 °F 36% 29.72 in 10.0 mi West 11.5 mph 23.0 mph N/A   Clear
2:35 PM 62.6 °F - 33.8 °F 34% 29.72 in 10.0 mi WNW 11.5 mph 20.7 mph N/A   Clear
2:55 PM 62.6 °F - 33.8 °F 34% 29.71 in 10.0 mi West 12.7 mph 20.7 mph N/A   Clear
3:15 PM 62.6 °F - 33.8 °F 34% 29.71 in 10.0 mi West 12.7 mph 20.7 mph N/A   Clear
3:35 PM 62.6 °F - 33.8 °F 34% 29.71 in 10.0 mi WSW 10.4 mph - N/A   Clear
3:55 PM 62.6 °F - 33.8 °F 34% 29.70 in 10.0 mi West 10.4 mph - N/A   Clear
4:15 PM 62.6 °F - 33.8 °F 34% 29.70 in 10.0 mi West 8.1 mph - N/A   Scattered Clouds
4:35 PM 64.4 °F - 33.8 °F 32% 29.71 in 10.0 mi WNW 4.6 mph - N/A   Scattered Clouds
4:55 PM 62.6 °F - 33.8 °F 34% 29.71 in 10.0 mi West 8.1 mph - N/A   Partly Cloudy
5:15 PM 62.6 °F - 33.8 °F 34% 29.71 in 10.0 mi WNW 5.8 mph - N/A   Partly Cloudy
5:35 PM 62.6 °F - 33.8 °F 34% 29.71 in 10.0 mi WSW 10.4 mph - N/A   Clear
5:55 PM 62.6 °F - 32.0 °F 32% 29.72 in 10.0 mi WSW 9.2 mph - N/A   Clear
6:15 PM 60.8 °F - 32.0 °F 34% 29.73 in 10.0 mi West 5.8 mph - N/A   Clear
6:35 PM 57.2 °F - 32.0 °F 38% 29.73 in 10.0 mi West 4.6 mph - N/A   Clear
6:55 PM 53.6 °F - 33.8 °F 47% 29.74 in 10.0 mi WSW 6.9 mph - N/A   Clear
7:15 PM 51.8 °F - 33.8 °F 50% 29.75 in 10.0 mi WSW 5.8 mph - N/A   Clear
7:35 PM 51.8 °F - 33.8 °F 50% 29.76 in 10.0 mi West 5.8 mph - N/A   Clear
7:55 PM 51.8 °F - 32.0 °F 47% 29.76 in 10.0 mi West 8.1 mph - N/A   Clear
8:15 PM 51.8 °F - 30.2 °F 44% 29.77 in 10.0 mi West 3.5 mph - N/A   Clear
8:35 PM 48.2 °F - 32.0 °F 54% 29.78 in 10.0 mi Calm Calm - N/A   Clear
8:55 PM 46.4 °F 44.3 °F 32.0 °F 57% 29.79 in 10.0 mi SW 4.6 mph - N/A   Clear
9:15 PM 44.6 °F 40.7 °F 33.8 °F 66% 29.79 in 10.0 mi SW 6.9 mph - N/A   Clear
9:35 PM 44.6 °F 38.8 °F 33.8 °F 66% 29.80 in 10.0 mi North 11.5 mph - N/A   Clear
9:55 PM 48.2 °F - 33.8 °F 58% 29.80 in 10.0 mi North 3.5 mph - N/A   Clear
10:15 PM 44.6 °F - 33.8 °F 66% 29.81 in 10.0 mi Calm Calm - N/A   Clear
10:35 PM 44.6 °F - 35.6 °F 71% 29.81 in 10.0 mi Calm Calm - N/A   Clear
10:55 PM 39.2 °F - 32.0 °F 75% 29.81 in 10.0 mi Calm Calm - N/A   Clear
11:15 PM 39.2 °F - 32.0 °F 75% 29.81 in 10.0 mi Calm Calm - N/A   Clear
11:35 PM 39.2 °F - 32.0 °F 75% 29.81 in 10.0 mi Calm Calm - N/A   Clear
11:55 PM 37.4 °F 33.8 °F 32.0 °F 81% 29.81 in 10.0 mi NW 4.6 mph - N/A   Clear